Change the Weather History Date:

Sunday, December 2, 2012

  Actual Average (KBFD) Record (KBFD)
Temperature  
Mean Temperature 42 °F 30 °F  
Max Temperature 48 °F 38 °F 65 °F (1982)
Min Temperature 35 °F 23 °F -9 °F (1976)
Degree Days  
Heating Degree Days 24 30  
Month to date heating degree days 60  
Since 1 July heating degree days 1895  
Cooling Degree Days 0 0  
Month to date cooling degree days 0  
Year to date cooling degree days 193  
Moisture  
Dew Point 40 °F    
Average Humidity 93    
Maximum Humidity 100    
Minimum Humidity 81    
Precipitation  
Precipitation 0.00 in 0.12 in 1.43 in (1986)
Month to date precipitation 0.24  
Year to date precipitation 41.30  
Sea Level Pressure  
Sea Level Pressure 30.06 in    
Wind  
Wind Speed 9 mph ()    
Max Wind Speed 14 mph    
Max Gust Speed 20 mph    
Visibility 5.7 miles    
Events Rain    
T = Trace of Precipitation, MM = Missing Value Source: Averaged Metar Reports

Daily Weather History Graph

Daily Weather History Graph

Search for Another Location

Airport or City:

Trip Planner

Search our weather history database for the weather conditions in past years. The results will help you decide how hot, cold, wet, or windy it might be!

Date:

Astronomy

Dec. 02, 2012 Rise Set
Actual Time 7:24 AM EST 4:41 PM EST
Civil Twilight 6:52 AM EST 5:13 PM EST
Nautical Twilight 6:17 AM EST 5:48 PM EST
Astronomical Twilight 5:44 AM EST 6:21 PM EST
Moon 8:29 PM EST (12/2) 10:11 AM EST (12/2)
Length of Visible Light 10h 20m
Length of Day
9h 17m
Waning Gibbous, 86% of the Moon is Illuminated
Dec 2
Waning Gibbous
Dec 6
Last Quarter
Dec 13
New
Dec 20
First Quarter
Dec 28
Full

Hourly Weather History & Observations

Time (EST) Temp. Windchill Dew Point Humidity Pressure Visibility Wind Dir Wind Speed Gust Speed Precip Events Conditions
12:15 AM 39.2 °F 33.0 °F 33.8 °F 81% 30.18 in 10.0 mi South 9.2 mph 16.1 mph N/A   Clear
12:35 AM 37.4 °F 30.8 °F 33.8 °F 87% 30.19 in 10.0 mi SSW 9.2 mph - N/A   Clear
12:55 AM 37.4 °F 29.8 °F 33.8 °F 87% 30.19 in 10.0 mi South 11.5 mph - N/A   Scattered Clouds
1:15 AM 37.4 °F 29.8 °F 33.8 °F 87% 30.19 in 10.0 mi South 11.5 mph - N/A   Scattered Clouds
1:35 AM 37.4 °F 28.9 °F 32.0 °F 81% 30.18 in 10.0 mi South 13.8 mph 19.6 mph N/A   Scattered Clouds
1:55 AM 37.4 °F 29.3 °F 32.0 °F 81% 30.18 in 10.0 mi South 12.7 mph 18.4 mph N/A   Scattered Clouds
2:15 AM 37.4 °F 30.8 °F 32.0 °F 81% 30.18 in 7.0 mi South 9.2 mph 16.1 mph N/A   Overcast
2:35 AM 37.4 °F 30.8 °F 32.0 °F 81% 30.18 in 7.0 mi South 9.2 mph - N/A   Mostly Cloudy
2:55 AM 37.4 °F 30.3 °F 32.0 °F 81% 30.17 in 7.0 mi South 10.4 mph - N/A   Scattered Clouds
3:15 AM 37.4 °F 30.8 °F 32.0 °F 81% 30.17 in 7.0 mi South 9.2 mph - N/A   Scattered Clouds
3:35 AM 37.4 °F 32.1 °F 33.8 °F 87% 30.16 in 7.0 mi SSW 6.9 mph - N/A   Clear
3:55 AM 37.4 °F 30.8 °F 32.0 °F 81% 30.15 in 7.0 mi South 9.2 mph 18.4 mph N/A   Clear
4:15 AM 37.4 °F 29.8 °F 32.0 °F 81% 30.14 in 7.0 mi South 11.5 mph - N/A   Clear
4:35 AM 37.4 °F 30.8 °F 32.0 °F 81% 30.13 in 7.0 mi SSW 9.2 mph 16.1 mph N/A   Clear
4:55 AM 35.6 °F 27.1 °F 32.0 °F 87% 30.13 in 7.0 mi South 12.7 mph 18.4 mph N/A   Clear
5:15 AM 35.6 °F 27.5 °F 32.0 °F 87% 30.13 in 7.0 mi South 11.5 mph - N/A   Clear
5:35 AM 35.6 °F 27.5 °F 32.0 °F 87% 30.12 in 7.0 mi SSW 11.5 mph 16.1 mph N/A   Clear
5:55 AM 35.6 °F 28.0 °F 32.0 °F 87% 30.12 in 7.0 mi SSW 10.4 mph - N/A   Clear
6:15 AM 35.6 °F 29.2 °F 33.8 °F 93% 30.11 in 7.0 mi SSW 8.1 mph - N/A   Clear
6:35 AM 37.4 °F 29.3 °F 33.8 °F 87% 30.11 in 7.0 mi SSW 12.7 mph 19.6 mph N/A   Scattered Clouds
6:55 AM 37.4 °F 28.9 °F 33.8 °F 87% 30.10 in 7.0 mi South 13.8 mph 17.3 mph N/A   Mostly Cloudy
7:15 AM 37.4 °F 30.3 °F 33.8 °F 87% 30.10 in 7.0 mi SSW 10.4 mph 16.1 mph N/A   Overcast
7:35 AM 37.4 °F 30.3 °F 33.8 °F 87% 30.10 in 7.0 mi SSW 10.4 mph - N/A   Mostly Cloudy
7:55 AM 37.4 °F 29.8 °F 33.8 °F 87% 30.09 in 7.0 mi South 11.5 mph - N/A   Mostly Cloudy
8:15 AM 37.4 °F 29.8 °F 33.8 °F 87% 30.09 in 5.0 mi South 11.5 mph 16.1 mph N/A   Drizzle
8:35 AM 37.4 °F 30.8 °F 35.6 °F 93% 30.09 in 5.0 mi SSW 9.2 mph - N/A Rain Light Rain
8:55 AM 37.4 °F 30.3 °F 35.6 °F 93% 30.09 in 5.0 mi South 10.4 mph - N/A Rain Light Rain
9:15 AM 39.2 °F 33.0 °F 35.6 °F 87% 30.08 in 5.0 mi South 9.2 mph - N/A Rain Light Rain
9:35 AM 39.2 °F 32.0 °F 37.4 °F 93% 30.07 in 4.0 mi South 11.5 mph - N/A Rain Light Rain
9:55 AM 39.2 °F 32.0 °F 37.4 °F 93% 30.07 in 3.0 mi South 11.5 mph - N/A Rain Rain
10:15 AM 41.0 °F 34.3 °F 39.2 °F 93% 30.06 in 3.0 mi SSW 11.5 mph 17.3 mph N/A Rain Light Rain
10:35 AM 41.0 °F 34.7 °F 41.0 °F 100% 30.05 in 3.0 mi South 10.4 mph 16.1 mph N/A Rain Rain
10:55 AM 41.0 °F 35.2 °F 41.0 °F 100% 30.04 in 3.0 mi SSW 9.2 mph - N/A Rain Rain
11:15 AM 41.0 °F 34.7 °F 41.0 °F 100% 30.04 in 2.5 mi SSW 10.4 mph 16.1 mph N/A Rain Light Rain
11:35 AM 42.8 °F 36.6 °F 42.8 °F 100% 30.02 in 2.5 mi SSW 11.5 mph - N/A Rain Rain
11:55 AM 42.8 °F 36.6 °F 42.8 °F 100% 30.01 in 3.0 mi SSW 11.5 mph - N/A Rain Light Rain
12:15 PM 42.8 °F 36.2 °F 42.8 °F 100% 30.00 in 3.0 mi SSW 12.7 mph 18.4 mph N/A Rain Light Rain
12:35 PM 42.8 °F 37.0 °F 42.8 °F 100% 29.99 in 3.0 mi SSW 10.4 mph 17.3 mph N/A Rain Light Rain
1:15 PM 42.8 °F 36.6 °F 42.8 °F 100% 29.97 in 2.0 mi SSW 11.5 mph 18.4 mph N/A Rain Rain
1:35 PM 42.8 °F 36.6 °F 42.8 °F 100% 29.97 in 1.8 mi SW 11.5 mph 18.4 mph N/A Rain Rain
1:55 PM 44.6 °F 39.7 °F 44.6 °F 100% 29.96 in 2.0 mi SW 9.2 mph - N/A Rain Light Rain
2:15 PM 44.6 °F 40.7 °F 44.6 °F 100% 29.96 in 1.5 mi SW 6.9 mph - N/A Rain Heavy Rain
2:35 PM 44.6 °F 40.2 °F 44.6 °F 100% 29.96 in 1.8 mi SW 8.1 mph - N/A Rain Rain
2:55 PM 44.6 °F 39.7 °F 44.6 °F 100% 29.95 in 2.0 mi SW 9.2 mph - N/A Rain Rain
3:15 PM 46.4 °F 41.1 °F 46.4 °F 100% 29.95 in 7.0 mi SSW 11.5 mph 17.3 mph N/A Rain Light Rain
3:35 PM 46.4 °F 42.4 °F 46.4 °F 100% 29.96 in 4.0 mi WSW 8.1 mph - N/A Rain Light Rain
3:55 PM 46.4 °F 41.9 °F 46.4 °F 100% 29.97 in 4.0 mi SW 9.2 mph - N/A Rain Light Rain
4:15 PM 46.4 °F 42.4 °F 46.4 °F 100% 29.97 in 5.0 mi SW 8.1 mph - N/A   Drizzle
4:35 PM 46.4 °F 41.9 °F 46.4 °F 100% 29.97 in 10.0 mi SW 9.2 mph - N/A   Overcast
4:55 PM 46.4 °F 42.9 °F 46.4 °F 100% 29.97 in 10.0 mi SW 6.9 mph 18.4 mph N/A   Overcast
5:15 PM 46.4 °F 42.4 °F 46.4 °F 100% 29.97 in 5.0 mi WSW 8.1 mph - N/A Rain Rain
5:35 PM 46.4 °F 41.9 °F 46.4 °F 100% 29.99 in 3.0 mi SW 9.2 mph - N/A   Drizzle
5:55 PM 46.4 °F 42.9 °F 46.4 °F 100% 29.99 in 5.0 mi WSW 6.9 mph - N/A   Overcast
6:15 PM 46.4 °F 42.4 °F 46.4 °F 100% 29.99 in 5.0 mi WSW 8.1 mph - N/A   Overcast
6:35 PM 46.4 °F 43.5 °F 46.4 °F 100% 30.00 in 3.0 mi WSW 5.8 mph - N/A   Overcast
6:55 PM 46.4 °F 42.9 °F 46.4 °F 100% 30.01 in 3.0 mi WSW 6.9 mph - N/A   Overcast
7:15 PM 48.2 °F - 48.2 °F 100% 30.01 in 4.0 mi WSW 9.2 mph - N/A   Overcast
7:35 PM 48.2 °F - 48.2 °F 100% 30.02 in 7.0 mi WSW 9.2 mph 17.3 mph N/A   Overcast
7:55 PM 48.2 °F - 48.2 °F 100% 30.03 in 5.0 mi West 6.9 mph - N/A   Overcast
8:15 PM 48.2 °F - 48.2 °F 100% 30.03 in 4.0 mi WSW 8.1 mph - N/A   Light Drizzle
8:35 PM 48.2 °F - 48.2 °F 100% 30.03 in 5.0 mi WSW 10.4 mph 16.1 mph N/A Rain Rain
8:55 PM 48.2 °F - 48.2 °F 100% 30.04 in 4.0 mi West 6.9 mph - N/A   Drizzle
9:15 PM 48.2 °F - 48.2 °F 100% 30.05 in 4.0 mi West 4.6 mph - N/A   Drizzle
9:35 PM 48.2 °F - 48.2 °F 100% 30.05 in 4.0 mi West 9.2 mph - N/A   Drizzle
9:55 PM 48.2 °F - 48.2 °F 100% 30.05 in 10.0 mi West 4.6 mph - N/A   Overcast
10:15 PM 48.2 °F - 46.4 °F 93% 30.05 in 10.0 mi West 3.5 mph - N/A   Overcast
10:35 PM 48.2 °F - 46.4 °F 93% 30.06 in 7.0 mi West 4.6 mph - N/A   Overcast
10:55 PM 48.2 °F - 46.4 °F 93% 30.06 in 7.0 mi West 4.6 mph - N/A   Overcast
11:15 PM 48.2 °F - 46.4 °F 93% 30.08 in 7.0 mi West 4.6 mph - N/A   Overcast
11:35 PM 48.2 °F - 46.4 °F 93% 30.08 in 7.0 mi West 6.9 mph - N/A   Overcast
11:55 PM 46.4 °F 44.3 °F 46.4 °F 100% 30.08 in 7.0 mi West 4.6 mph - N/A   Overcast